Location: Zapote
(9.9191°N, 84.0597°W)
Time: 04:40:13
(UTC-06:00)

N. Korean satellite - Pass Details

Date: 29 January 2021
Orbit: 451 x 503 km, 97.2° (Epoch: 25 February)

Event Time Altitude Azimuth Distance (km) Brightness Sun altitude
Rises 04:55:46 0° 3° (N) 2,447 10.0 -15.7°
Reaches altitude 10° 04:57:49 10° 358° (N) 1,574 9.0 -15.2°
Maximum altitude 05:01:06 52° 282° (WNW) 568 6.5 -14.4°
Drops below altitude 10° 05:04:24 10° 204° (SSW) 1,580 9.1 -13.6°
Sets 05:06:28 0° 199° (SSW) 2,456 10.1 -13.1°
